ARSAT 1

Last updated on Mon Sep 07 2026 00:02:59 GMT+0000 (Coordinated Universal Time)

1 40272U 14062B 26249.63733711 -.00000276 00000+0 00000+0 0 9996 2 40272 0.0291 68.1300 0001531 95.7342 339.5112 1.00271232 43444
UTC large
Height (km)
Speed (km/s)
/
Latitude / Longitude
Inclination (degrees)
Orbital Period (minutes)
Azimuth
Elevation
Range (km)
Doppler Factor

Next 0 passes for location: London (51.5072 / 0.1276)

No passes found over London.
ARSAT 1